When you browse on this site, cookies collect data to enhance your experience and personalize the content and advertising you see.
Visit our Privacy Policy to learn more. By continuing to use the site, you agree to this use of cookies and data.
  • In United Kingdom
  • List of Countries
  • For 7 days
  • Water Temperature
  • Weather Map
  • Weather Widgets
  • user-avatar
    Login

    Hourly Weather Baraki Barak

    Today, 15 September, Sunday

    Time Temperature Precipitation Wind Pressure Humidity
    00:00 +18°C° 0 mm 1 mps 598 mmHg 31%
    01:00 +16°C° 0 mm 0 mps 598 mmHg 35%
    02:00 +15°C° 0 mm 0 mps 598 mmHg 38%
    03:00 +15°C° 0 mm 0 mps 597 mmHg 40%
    04:00 +15°C° 0 mm 1 mps 597 mmHg 41%
    05:00 +14°C° 0 mm 0 mps 597 mmHg 44%
    06:00 +16°C° 0 mm 0 mps 598 mmHg 38%
    07:00 +20°C° 0 mm 1 mps 600 mmHg 32%
    08:00 +22°C° 0 mm 1 mps 601 mmHg 26%
    09:00 +24°C° 0 mm 1 mps 601 mmHg 21%
    10:00 +26°C° 0 mm 1 mps 601 mmHg 17%
    11:00 +27°C° 0 mm 2 mps 602 mmHg 11%
    12:00 +29°C° 0 mm 2 mps 602 mmHg 10%
    13:00 +30°C° 0 mm 3 mps 602 mmHg 8%
    14:00 +31°C° 0 mm 3 mps 602 mmHg 7%
    15:00 +32°C° 0 mm 4 mps 602 mmHg 7%
    16:00 +32°C° 0 mm 5 mps 601 mmHg 7%
    17:00 +32°C° 0 mm 6 mps 601 mmHg 7%
    18:00 +27°C° 0 mm 4 mps 601 mmHg 10%
    19:00 +24°C° 0 mm 3 mps 600 mmHg 14%
    20:00 +21°C° 0 mm 1 mps 599 mmHg 17%
    21:00 +20°C° 0 mm 1 mps 599 mmHg 20%
    22:00 +18°C° 0 mm 1 mps 599 mmHg 23%
    23:00 +16°C° 0 mm 1 mps 598 mmHg 26%

    Tomorrow, 16 September, Monday

    Time Temperature Precipitation Wind Pressure Humidity
    00:00 +15°C° 0 mm 1 mps 598 mmHg 27%
    01:00 +15°C° 0 mm 1 mps 597 mmHg 28%
    02:00 +14°C° 0 mm 1 mps 597 mmHg 30%
    03:00 +13°C° 0 mm 1 mps 597 mmHg 31%
    04:00 +12°C° 0 mm 1 mps 596 mmHg 32%
    05:00 +12°C° 0 mm 1 mps 596 mmHg 33%
    06:00 +13°C° 0 mm 1 mps 597 mmHg 29%
    07:00 +15°C° 0 mm 1 mps 598 mmHg 26%
    08:00 +16°C° 0 mm 1 mps 599 mmHg 23%
    09:00 +20°C° 0 mm 1 mps 599 mmHg 19%
    10:00 +22°C° 0 mm 1 mps 600 mmHg 16%
    11:00 +24°C° 0 mm 1 mps 600 mmHg 12%
    12:00 +26°C° 0 mm 1 mps 600 mmHg 10%
    13:00 +27°C° 0 mm 2 mps 600 mmHg 7%
    14:00 +29°C° 0 mm 2 mps 600 mmHg 5%
    15:00 +29°C° 0 mm 2 mps 600 mmHg 5%
    16:00 +29°C° 0 mm 3 mps 600 mmHg 5%
    17:00 +29°C° 0 mm 3 mps 600 mmHg 4%
    18:00 +26°C° 0 mm 3 mps 599 mmHg 6%
    19:00 +23°C° 0 mm 2 mps 598 mmHg 8%
    20:00 +18°C° 0 mm 2 mps 597 mmHg 9%
    21:00 +17°C° 0 mm 2 mps 597 mmHg 11%
    22:00 +16°C° 0 mm 2 mps 597 mmHg 12%
    23:00 +15°C° 0 mm 1 mps 597 mmHg 14%

    Day after tomorrow, 17 September, Tuesday

    Time Temperature Precipitation Wind Pressure Humidity
    00:00 +14°C° 0 mm 1 mps 596 mmHg 17%
    01:00 +13°C° 0 mm 1 mps 596 mmHg 21%
    02:00 +12°C° 0 mm 1 mps 596 mmHg 24%
    03:00 +12°C° 0 mm 1 mps 596 mmHg 27%
    04:00 +11°C° 0 mm 1 mps 596 mmHg 30%
    05:00 +10°C° 0 mm 1 mps 595 mmHg 33%
    06:00 +12°C° 0 mm 1 mps 596 mmHg 30%
    07:00 +13°C° 0 mm 1 mps 597 mmHg 27%
    08:00 +15°C° 0 mm 1 mps 598 mmHg 24%
    09:00 +18°C° 0 mm 1 mps 599 mmHg 20%
    10:00 +21°C° 0 mm 1 mps 600 mmHg 15%
    11:00 +23°C° 0 mm 1 mps 600 mmHg 11%
    12:00 +25°C° 0 mm 1 mps 601 mmHg 9%
    13:00 +26°C° 0 mm 1 mps 601 mmHg 7%
    14:00 +28°C° 0 mm 2 mps 601 mmHg 5%
    15:00 +28°C° 0 mm 2 mps 601 mmHg 4%
    16:00 +28°C° 0 mm 2 mps 601 mmHg 4%
    17:00 +29°C° 0 mm 1 mps 601 mmHg 3%
    18:00 +25°C° 0 mm 1 mps 600 mmHg 5%
    19:00 +22°C° 0 mm 1 mps 599 mmHg 7%
    20:00 +19°C° 0 mm 1 mps 598 mmHg 8%
    21:00 +18°C° 0 mm 1 mps 598 mmHg 10%
    22:00 +15°C° 0 mm 0 mps 597 mmHg 13%
    23:00 +14°C° 0 mm 0 mps 597 mmHg 15%

    18 September, Wednesday

    Time Temperature Precipitation Wind Pressure Humidity
    00:00 +14°C° 0 mm 0 mps 597 mmHg 17%
    01:00 +13°C° 0 mm 0 mps 597 mmHg 20%
    02:00 +12°C° 0 mm 0 mps 597 mmHg 23%
    03:00 +13°C° 0 mm 1 mps 597 mmHg 25%
    04:00 +13°C° 0 mm 1 mps 597 mmHg 27%
    05:00 +12°C° 0 mm 1 mps 596 mmHg 29%
    06:00 +15°C° 0 mm 1 mps 598 mmHg 25%
    07:00 +18°C° 0 mm 1 mps 600 mmHg 21%
    08:00 +21°C° 0 mm 1 mps 601 mmHg 17%
    09:00 +23°C° 0 mm 1 mps 602 mmHg 14%
    10:00 +25°C° 0 mm 1 mps 603 mmHg 11%
    11:00 +27°C° 0 mm 1 mps 603 mmHg 9%
    12:00 +28°C° 0 mm 1 mps 603 mmHg 7%
    13:00 +29°C° 0 mm 1 mps 603 mmHg 6%
    14:00 +31°C° 0 mm 1 mps 603 mmHg 5%
    15:00 +31°C° 0 mm 2 mps 603 mmHg 5%
    16:00 +31°C° 0 mm 2 mps 603 mmHg 5%
    17:00 +31°C° 0 mm 2 mps 603 mmHg 5%
    18:00 +27°C° 0 mm 2 mps 602 mmHg 6%
    19:00 +24°C° 0 mm 1 mps 601 mmHg 8%
    20:00 +21°C° 0 mm 1 mps 600 mmHg 9%
    21:00 +20°C° 0 mm 1 mps 599 mmHg 10%
    22:00 +19°C° 0 mm 1 mps 599 mmHg 11%
    23:00 +16°C° 0 mm 0 mps 599 mmHg 12%

    19 September, Thursday

    Time Temperature Precipitation Wind Pressure Humidity
    00:00 +15°C° 0 mm 0 mps 599 mmHg 14%
    01:00 +15°C° 0 mm 0 mps 598 mmHg 16%
    02:00 +14°C° 0 mm 0 mps 598 mmHg 18%
    03:00 +14°C° 0 mm 1 mps 598 mmHg 17%
    04:00 +14°C° 0 mm 1 mps 598 mmHg 17%
    05:00 +13°C° 0 mm 1 mps 598 mmHg 17%
    06:00 +15°C° 0 mm 1 mps 599 mmHg 15%
    07:00 +19°C° 0 mm 1 mps 600 mmHg 13%
    08:00 +21°C° 0 mm 1 mps 602 mmHg 10%
    09:00 +23°C° 0 mm 1 mps 602 mmHg 9%
    10:00 +25°C° 0 mm 1 mps 603 mmHg 8%
    11:00 +27°C° 0 mm 1 mps 603 mmHg 6%
    12:00 +28°C° 0 mm 1 mps 603 mmHg 5%
    13:00 +29°C° 0 mm 1 mps 603 mmHg 5%
    14:00 +30°C° 0 mm 1 mps 603 mmHg 4%
    15:00 +30°C° 0 mm 2 mps 603 mmHg 4%
    16:00 +30°C° 0 mm 2 mps 603 mmHg 4%
    17:00 +30°C° 0 mm 2 mps 603 mmHg 4%
    18:00 +27°C° 0 mm 2 mps 602 mmHg 7%
    19:00 +24°C° 0 mm 2 mps 601 mmHg 11%
    20:00 +20°C° 0 mm 2 mps 601 mmHg 14%
    21:00 +19°C° 0 mm 2 mps 600 mmHg 18%
    22:00 +19°C° 0 mm 1 mps 600 mmHg 21%
    23:00 +18°C° 0 mm 1 mps 600 mmHg 25%

    20 September, Friday

    Time Temperature Precipitation Wind Pressure Humidity
    00:00 +16°C° 0 mm 1 mps 599 mmHg 25%
    01:00 +16°C° 0 mm 1 mps 599 mmHg 26%
    02:00 +15°C° 0 mm 1 mps 599 mmHg 26%
    03:00 +14°C° 0 mm 1 mps 599 mmHg 28%
    04:00 +14°C° 0 mm 1 mps 598 mmHg 29%
    05:00 +13°C° 0 mm 1 mps 598 mmHg 30%
    06:00 +15°C° 0 mm 1 mps 599 mmHg 27%
    07:00 +18°C° 0 mm 1 mps 600 mmHg 24%
    08:00 +20°C° 0 mm 1 mps 601 mmHg 21%
    09:00 +21°C° 0 mm 1 mps 601 mmHg 19%
    10:00 +23°C° 0 mm 1 mps 602 mmHg 16%
    11:00 +25°C° 0 mm 1 mps 602 mmHg 14%
    12:00 +26°C° 0 mm 1 mps 602 mmHg 12%
    13:00 +27°C° 0 mm 1 mps 602 mmHg 11%
    14:00 +29°C° 0 mm 1 mps 602 mmHg 9%
    15:00 +29°C° 0 mm 1 mps 602 mmHg 8%
    16:00 +29°C° 0 mm 2 mps 601 mmHg 8%
    17:00 +29°C° 0 mm 2 mps 601 mmHg 7%
    18:00 +26°C° 0 mm 1 mps 601 mmHg 10%
    19:00 +23°C° 0 mm 1 mps 600 mmHg 13%
    20:00 +20°C° 0 mm 1 mps 599 mmHg 15%
    21:00 +19°C° 0 mm 1 mps 599 mmHg 18%
    22:00 +19°C° 0 mm 1 mps 599 mmHg 20%
    23:00 +18°C° 0 mm 1 mps 599 mmHg 22%
    Show more